5 day graph

You are here

Error message

  • Notice: Trying to access array offset on value of type int in DrupalRequestSanitizer::stripDangerousValues() (line 102 of /home/twolittl/public_html/cms/includes/request-sanitizer.inc).
  • Notice: Trying to access array offset on value of type int in DrupalRequestSanitizer::stripDangerousValues() (line 102 of /home/twolittl/public_html/cms/includes/request-sanitizer.inc).
  • Notice: Trying to access array offset on value of type int in DrupalRequestSanitizer::stripDangerousValues() (line 102 of /home/twolittl/public_html/cms/includes/request-sanitizer.inc).
  • Notice: Trying to access array offset on value of type int in DrupalRequestSanitizer::stripDangerousValues() (line 102 of /home/twolittl/public_html/cms/includes/request-sanitizer.inc).
  • Notice: Trying to access array offset on value of type int in DrupalRequestSanitizer::stripDangerousValues() (line 102 of /home/twolittl/public_html/cms/includes/request-sanitizer.inc).
  • Notice: Trying to access array offset on value of type int in DrupalRequestSanitizer::stripDangerousValues() (line 102 of /home/twolittl/public_html/cms/includes/request-sanitizer.inc).
  • Notice: Trying to access array offset on value of type int in DrupalRequestSanitizer::stripDangerousValues() (line 102 of /home/twolittl/public_html/cms/includes/request-sanitizer.inc).
  • Notice: Trying to access array offset on value of type int in DrupalRequestSanitizer::stripDangerousValues() (line 102 of /home/twolittl/public_html/cms/includes/request-sanitizer.inc).
  • Notice: Trying to access array offset on value of type int in DrupalRequestSanitizer::stripDangerousValues() (line 102 of /home/twolittl/public_html/cms/includes/request-sanitizer.inc).
  • Notice: Trying to access array offset on value of type int in DrupalRequestSanitizer::stripDangerousValues() (line 102 of /home/twolittl/public_html/cms/includes/request-sanitizer.inc).
  • Deprecated function: Function get_magic_quotes_gpc() is deprecated in phpMyEdit->get_cgi_var() (line 1773 of /home/twolittl/public_html/phpMyEdit.class.php).
  • Deprecated function: implode(): Passing glue string after array is deprecated. Swap the parameters in drupal_get_feeds() (line 394 of /home/twolittl/public_html/cms/includes/common.inc).

Hive Data

Page: 1 of 16645  Records: 998690

Row Date Time Hive Temp Hive Humidity Outside Temp Outside Humidity Bottom Board Temp Outside Wall Temp Electronics Temp Light Levels inHG Fan Heat Cover Notes
Clear Sorted By: Outside Wall Temp ascending, Hive Temp ascending, Electronics Temp ascending, Row descending
View 382390 Mar 1 2015 8:50:23am 65.48 48 32.54 83 34.7 -196.6 51.8 271 29.48 0 0 0 NA
View 382389 Mar 1 2015 8:49:21am 65.48 44 32.54 82 34.7 -196.6 51.8 271 29.48 0 0 0 NA
View 382388 Mar 1 2015 8:48:20am 65.48 44 32.54 83 34.25 -196.6 51.8 271 29.48 0 0 0 NA
View 382356 Mar 1 2015 8:15:44am 65.48 47 30.56 81 33.8 -196.6 51.8 272 29.49 0 0 0 NA
View 382354 Mar 1 2015 8:13:42am 65.48 44 30.38 81 33.8 -196.6 51.8 272 29.49 0 0 0 NA
View 382326 Mar 1 2015 7:45:11am 65.48 42 29.3 82 33.8 -196.6 51.8 273 29.49 0 0 0 NA
View 382325 Mar 1 2015 7:44:10am 65.48 39 29.3 82 33.8 -196.6 51.8 272 29.49 0 0 0 NA
View 382324 Mar 1 2015 7:43:08am 65.48 38 29.12 82 33.8 -196.6 51.8 273 29.49 0 0 0 NA
View 382310 Mar 1 2015 7:28:52am 65.48 42 29.12 81 33.8 -196.6 51.8 273 29.49 0 0 0 NA
View 382393 Mar 1 2015 8:53:27am 65.66 49 32.72 84 34.7 -196.6 51.8 271 29.48 0 0 0 NA
View 382392 Mar 1 2015 8:52:25am 65.66 49 32.72 83 34.7 -196.6 51.8 271 29.48 0 0 0 NA
View 382391 Mar 1 2015 8:51:24am 65.66 51 32.72 83 34.7 -196.6 51.8 271 29.48 0 0 0 NA
View 382387 Mar 1 2015 8:47:19am 65.66 43 32.36 83 34.25 -196.6 51.8 271 29.48 0 0 0 NA
View 382386 Mar 1 2015 8:46:18am 65.66 42 32.36 83 34.25 -196.6 51.8 271 29.48 0 0 0 NA
View 382359 Mar 1 2015 8:18:48am 65.66 49 30.56 81 33.8 -196.6 51.8 272 29.49 0 0 0 NA
View 382358 Mar 1 2015 8:17:47am 65.66 46 30.56 81 33.8 -196.6 51.8 272 29.49 0 0 0 NA
View 382357 Mar 1 2015 8:16:45am 65.66 44 30.56 81 33.8 -196.6 51.8 272 29.5 0 0 0 NA
View 382355 Mar 1 2015 8:14:43am 65.66 42 30.38 81 33.8 -196.6 51.8 272 29.49 0 0 0 NA
View 382353 Mar 1 2015 8:12:40am 65.66 42 30.38 81 33.8 -196.6 51.8 272 29.49 0 0 0 NA
View 382352 Mar 1 2015 8:11:39am 65.66 42 30.38 81 33.8 -196.6 51.8 271 29.5 0 0 0 NA
View 382351 Mar 1 2015 8:10:39am 65.66 44 30.38 81 33.8 -196.6 51.8 272 29.49 0 0 0 NA
View 382328 Mar 1 2015 7:47:13am 65.66 50 29.3 83 33.8 -196.6 51.8 272 29.49 0 0 0 NA
View 382327 Mar 1 2015 7:46:12am 65.66 45 29.3 83 33.8 -196.6 51.8 273 29.49 0 0 0 NA
View 382323 Mar 1 2015 7:42:07am 65.66 39 29.12 82 33.8 -196.6 51.8 272 29.49 0 0 0 NA
View 382322 Mar 1 2015 7:41:06am 65.66 42 29.12 82 33.8 -196.6 51.8 273 29.49 0 0 0 NA
View 382321 Mar 1 2015 7:40:04am 65.66 39 29.12 81 33.8 -196.6 51.8 272 29.49 0 0 0 NA
View 382312 Mar 1 2015 7:30:55am 65.66 47 29.12 81 33.8 -196.6 51.8 273 29.49 0 0 0 NA
View 382311 Mar 1 2015 7:29:53am 65.66 45 29.12 81 33.8 -196.6 51.8 273 29.49 0 0 0 NA
View 382309 Mar 1 2015 7:27:51am 65.66 41 29.12 81 33.8 -196.6 51.8 272 29.49 0 0 0 NA
View 382308 Mar 1 2015 7:26:49am 65.66 41 28.94 81 33.8 -196.6 51.8 272 29.49 0 0 0 NA
View 382420 Mar 1 2015 9:20:56am 65.84 53 35.24 85 35.6 -196.6 51.8 270 29.47 0 0 0 NA
View 382419 Mar 1 2015 9:19:55am 65.84 52 35.06 85 35.6 -196.6 51.8 270 29.47 0 0 0 NA
View 382418 Mar 1 2015 9:18:55am 65.84 48 35.06 86 35.6 -196.6 51.8 269 29.47 0 0 0 NA
View 382417 Mar 1 2015 9:17:54am 65.84 48 34.88 86 35.6 -196.6 51.8 269 29.47 0 0 0 NA
View 382416 Mar 1 2015 9:16:53am 65.84 46 34.7 86 35.6 -196.6 51.8 269 29.47 0 0 0 NA
View 382415 Mar 1 2015 9:15:51am 65.84 46 34.7 86 35.15 -196.6 51.8 269 29.47 0 0 0 NA
View 382414 Mar 1 2015 9:14:50am 65.84 46 34.52 85 35.15 -196.6 51.8 270 29.48 0 0 0 NA
View 382413 Mar 1 2015 9:13:49am 65.84 45 34.34 85 35.15 -196.6 51.8 270 29.47 0 0 0 NA
View 382412 Mar 1 2015 9:12:47am 65.84 49 34.34 85 35.15 -196.6 51.8 270 29.47 0 0 0 NA
View 382411 Mar 1 2015 9:11:46am 65.84 50 34.16 85 35.15 -196.6 51.8 270 29.47 0 0 0 NA
View 382410 Mar 1 2015 9:10:45am 65.84 46 34.16 85 35.15 -196.6 51.8 270 29.48 0 0 0 NA
View 382409 Mar 1 2015 9:09:44am 65.84 46 34.16 85 35.15 -196.6 51.8 271 29.48 0 0 0 NA
View 382408 Mar 1 2015 9:08:44am 65.84 44 33.98 85 35.15 -196.6 51.8 271 29.47 0 0 0 NA
View 382404 Mar 1 2015 9:04:39am 65.84 50 33.62 85 35.15 -196.6 51.8 271 29.48 0 0 0 NA
View 382403 Mar 1 2015 9:03:38am 65.84 48 33.44 84 34.7 -196.6 51.8 271 29.48 0 0 0 NA
View 382402 Mar 1 2015 9:02:36am 65.84 47 33.44 84 34.7 -196.6 51.8 271 29.48 0 0 0 NA
View 382401 Mar 1 2015 9:01:35am 65.84 49 33.44 84 34.7 -196.6 51.8 271 29.48 0 0 0 NA
View 382400 Mar 1 2015 9:00:34am 65.84 46 33.26 84 34.7 -196.6 51.8 271 29.48 0 0 0 NA
View 382399 Mar 1 2015 8:59:33am 65.84 48 33.26 84 34.7 -196.6 51.8 271 29.48 0 0 0 NA
View 382398 Mar 1 2015 8:58:31am 65.84 47 33.08 84 34.7 -196.6 51.8 271 29.48 0 0 0 NA
View 382397 Mar 1 2015 8:57:30am 65.84 48 33.08 84 34.7 -196.6 51.8 271 29.48 0 0 0 NA
View 382396 Mar 1 2015 8:56:29am 65.84 46 33.08 84 34.7 -196.6 51.8 271 29.48 0 0 0 NA
View 382395 Mar 1 2015 8:55:28am 65.84 48 32.9 83 34.7 -196.6 51.8 271 29.48 0 0 0 NA
View 382394 Mar 1 2015 8:54:28am 65.84 47 32.9 83 34.7 -196.6 51.8 271 29.48 0 0 0 NA
View 382385 Mar 1 2015 8:45:16am 65.84 43 32.18 83 34.25 -196.6 51.8 271 29.48 0 0 0 NA
View 382384 Mar 1 2015 8:44:15am 65.84 44 32.18 83 34.25 -196.6 51.8 271 29.48 0 0 0 NA
View 382381 Mar 1 2015 8:41:13am 65.84 43 32 83 34.25 -196.6 51.8 271 29.49 0 0 0 NA
View 382364 Mar 1 2015 8:23:53am 65.84 45 30.92 81 34.25 -196.6 51.8 271 29.49 0 0 0 NA
View 382363 Mar 1 2015 8:22:52am 65.84 48 30.74 81 34.25 -196.6 51.8 272 29.5 0 0 0 NA
View 382362 Mar 1 2015 8:21:52am 65.84 53 30.74 81 33.8 -196.6 51.8 272 29.49 0 0 0 NA